[[{"header":{"parameterUnit":"m.s-1","parameterCategory":1,"la1":30.2991,"la2":30.254,"lo1":-89.0895,"lo2":-89.0444,"dy":0.0017,"dx":0.0017,"nx":28,"ny":28,"refTime":"2025-07-19T03:00:00:Z","depth":0,"parameterNumber":2,"parameterNumberName":"U-component_of_WINDS"},"data":[0,0,0,0,0,0,0,0,0,0,0,0,0,0,0,0,0,0,0,0,0,0,0,0,0,0,0,0,0,0,0,0,0,0,0,0,0,0,0,0,0,0,0,0,0,0,0,0,0,0,0,0,0,0,0,0,0,0,1.0787,1.0788,0,1.0885,1.0886,1.0887,1.094,1.094,1.094,1.094,1.1044,1.1046,1.1049,0,0,0,0,0,0,0,0,0,0,0,0,0,1.0649,1.0651,1.0787,1.0788,1.0789,1.0884,1.0886,1.0887,1.094,1.094,1.094,1.094,1.1043,1.1046,1.1049,0,0,0,0,0,0,0,0,0,0,0,0,0,1.0724,1.0651,1.0786,1.0827,1.0831,1.0884,1.0886,1.0887,1.094,1.094,1.094,1.094,1.1042,1.1046,1.105,1.1071,0,0,1.1062,1.1063,0,0,0,0,0,0,0,0,1.0719,1.0729,1.0819,1.0824,1.0829,1.09,1.0875,1.0949,1.094,1.0899,1.094,1.094,1.0996,1.1004,1.1022,1.1076,1.108,1.1062,1.1065,1.1066,1.1067,0,0,0,0,0,0,0,1.0714,1.0725,1.0825,1.0821,1.0827,1.0841,1.0852,1.0889,1.0945,1.0902,1.0906,1.0917,1.0999,1.1018,1.1025,1.1082,1.1062,1.1066,1.1068,1.107,1.1159,1.1159,0,0,0,0,0,0,1.0702,1.072,1.0822,1.0828,1.0773,1.0843,1.0855,1.0877,1.0945,1.0955,1.0917,1.0919,1.1011,1.102,1.1029,1.1058,1.1066,1.107,1.1072,1.1159,1.1159,1.1159,0,0,0,0,0,0,1.0699,1.0711,1.0818,1.0775,1.079,1.0845,1.0869,1.0879,1.0898,1.0956,1.0966,1.0926,1.1011,1.1023,1.106,1.1063,1.1072,1.1075,1.1159,1.1159,1.1159,1.1118,0,0,0,0,0,0,1.0695,1.0709,1.0717,1.0775,1.0792,1.0847,1.087,1.0881,1.0905,1.0909,1.0967,1.0977,1.1012,1.1054,1.1064,1.1068,1.1079,1.1159,1.1159,1.1159,1.1119,1.1116,1.1114,0,0,0,0,0,1.0689,1.0702,1.0717,1.0729,1.0803,1.0847,1.0857,1.0896,1.0904,1.0913,1.0951,1.0975,1.1061,1.1057,1.1069,1.1075,1.1159,1.1159,1.1159,1.112,1.1117,1.1114,0,0,0,0,0,0,1.0644,1.071,1.0728,1.0759,1.0797,1.0856,1.0868,1.0891,1.0928,1.0931,1.0979,1.0992,1.1024,1.1054,1.1048,1.1099,1.1113,1.1115,1.1079,1.1076,1.1074,1.1066,1.1082,0,0,0,0,0,1.0637,1.0666,1.0723,1.0745,1.0763,1.0812,1.0833,1.086,1.0901,1.0918,1.0958,1.0998,1.1034,1.1057,1.1093,1.1124,1.1138,1.1134,1.1131,1.1129,1.113,1.1149,1.1148,1.1159,1.1159,1.1159,0,0,1.0624,1.0664,1.0679,1.0737,1.077,1.08,1.0825,1.0856,1.0879,1.0923,1.096,1.0991,1.1039,1.1073,1.109,1.1098,1.113,1.1129,1.1126,1.1129,1.1149,1.1148,1.1147,1.1159,1.1159,1.1159,0,0,1.0615,1.0648,1.067,1.0702,1.0751,1.0783,1.0788,1.0844,1.0866,1.0903,1.0937,1.0966,1.1027,1.106,1.1085,1.1089,1.1114,1.11,1.1086,1.1104,1.1103,1.1103,1.1105,1.1105,1.1101,1.1101,1.1101,0,1.0593,1.0638,1.0679,1.0708,1.0733,1.0773,1.0797,1.0826,1.0884,1.0901,1.0909,1.0986,1.1022,1.1064,1.1065,1.1084,1.1092,1.1093,1.11,1.11,1.11,1.1102,1.1103,1.1099,1.1099,1.11,1.11,0,1.0609,1.064,1.0653,1.0707,1.0733,1.0759,1.0805,1.0827,1.0852,1.0884,1.0922,1.0966,1.1012,1.1024,1.1049,1.1071,1.1074,1.109,1.1105,1.1096,1.1099,1.1101,1.1096,1.1097,1.1098,1.1098,0,0,1.0574,1.065,1.0654,1.0679,1.0736,1.0761,1.079,1.0834,1.0852,1.0891,1.0916,1.0967,1.0983,1.1011,1.104,1.1056,1.1057,1.107,1.1072,1.1066,1.1083,1.1071,1.1071,1.1073,1.1074,1.1074,1.1079,0,1.0574,1.0625,1.0663,1.07,1.073,1.0769,1.0794,1.0832,1.0862,1.0893,1.0928,1.0963,1.0981,1.0998,1.1015,1.1053,1.1061,1.1053,1.1098,1.1099,1.1085,1.1073,1.1059,1.1062,1.1081,1.1081,1.1081,0,1.058,1.0617,1.0657,1.071,1.0724,1.0746,1.0789,1.0818,1.0862,1.0884,1.0915,1.0945,1.0978,1.0989,1.1035,1.1029,1.105,1.1072,1.1073,1.1078,1.109,1.1078,1.1064,1.1065,1.1084,1.1083,1.1083,0,1.0551,1.061,1.0642,1.0662,1.0726,1.074,1.0767,1.0812,1.0836,1.0874,1.0891,1.0933,1.0956,1.0989,1.103,1.1034,1.1072,1.1087,1.1092,1.1091,1.1098,1.1097,1.1087,1.1111,1.1111,1.1111,1.1111,0,1.0547,1.057,1.063,1.0649,1.0676,1.072,1.0746,1.0777,1.0816,1.0843,1.088,1.0905,1.0957,1.0989,1.1022,1.1055,1.1066,1.1085,1.1093,1.1081,1.1079,1.1096,1.1097,1.1111,1.1111,1.1111,1.1111,0,1.0518,1.0559,1.0596,1.0653,1.0668,1.0686,1.0735,1.0756,1.0789,1.0822,1.0833,1.0885,1.0924,1.0968,1.1022,1.1044,1.1076,1.1088,1.106,1.1065,1.1068,1.1067,1.1068,1.1071,1.1093,1.1092,1.1092,0,1.0513,1.0531,1.059,1.061,1.0636,1.0668,1.0693,1.0737,1.0761,1.0813,1.0828,1.087,1.0905,1.0966,1.101,1.1051,1.1065,1.1063,1.1071,1.1059,1.1065,1.1063,1.1066,1.106,1.1059,1.1059,1.1059,0,1.0499,1.0518,1.0552,1.0592,1.062,1.0655,1.0691,1.0706,1.0757,1.0783,1.0823,1.085,1.0905,1.0946,1.0993,1.1023,1.105,1.1056,1.1059,1.1047,1.103,1.104,1.1053,1.1055,1.1056,1.1056,1.1056,1.1056,1.0482,1.05,1.0544,1.0581,1.0612,1.0645,1.0667,1.0703,1.0736,1.0783,1.0808,1.0847,1.0892,1.0958,1.0987,1.1019,1.1028,1.1033,1.1034,1.1035,1.1031,1.1025,1.1028,1.1028,1.1029,1.1029,1.1029,0,1.047,1.05,1.0533,1.0582,1.061,1.0632,1.0673,1.0696,1.073,1.0769,1.0803,1.0849,1.0889,1.0936,1.0979,1.0996,1.101,1.1006,1.1005,1.1012,1.1021,1.1014,1.0994,1.0994,1.0994,1.0994,1.0994,1.0994,1.0467,1.0499,1.0524,1.0572,1.0603,1.0641,1.0663,1.0693,1.0725,1.0774,1.0807,1.0837,1.0879,1.0926,1.0964,1.0977,1.0991,1.0984,1.1,1.1008,1.1011,1.1014,1.1007,1.0987,1.0987,1.0989,1.0989,1.0989]},{"header":{"parameterUnit":"m.s-1","parameterCategory":1,"la1":30.2991,"la2":30.254,"lo1":-89.0895,"lo2":-89.0444,"dy":0.0017,"dx":0.0017,"nx":28,"ny":28,"refTime":"2025-07-19T03:00:00:Z","depth":0,"parameterNumber":3,"parameterNumberName":"V-component_of_WINDS"},"data":[0,0,0,0,0,0,0,0,0,0,0,0,0,0,0,0,0,0,0,0,0,0,0,0,0,0,0,0,0,0,0,0,0,0,0,0,0,0,0,0,0,0,0,0,0,0,0,0,0,0,0,0,0,0,0,0,0,0,1.7146,1.7146,0,1.7122,1.7122,1.7121,1.7104,1.7104,1.7104,1.7104,1.7078,1.7077,1.7077,0,0,0,0,0,0,0,0,0,0,0,0,0,1.7173,1.7172,1.7146,1.7146,1.7145,1.7122,1.7122,1.7121,1.7104,1.7104,1.7104,1.7104,1.7078,1.7077,1.7076,0,0,0,0,0,0,0,0,0,0,0,0,0,1.7156,1.7172,1.7146,1.7134,1.7133,1.7122,1.7122,1.7121,1.7104,1.7104,1.7104,1.7104,1.7078,1.7077,1.7076,1.7075,0,0,1.7074,1.7073,0,0,0,0,0,0,0,0,1.7157,1.7155,1.7136,1.7135,1.7133,1.7116,1.7121,1.7106,1.7105,1.7115,1.7104,1.7104,1.709,1.7089,1.7084,1.7074,1.7073,1.7074,1.7073,1.7073,1.7072,0,0,0,0,0,0,0,1.7158,1.7156,1.7136,1.7136,1.7134,1.7129,1.7126,1.7118,1.7104,1.7114,1.7113,1.711,1.709,1.7085,1.7084,1.7072,1.7074,1.7073,1.7072,1.7072,1.7055,1.7055,0,0,0,0,0,0,1.7162,1.7157,1.7137,1.7136,1.7145,1.7128,1.7125,1.7122,1.7104,1.7101,1.7111,1.711,1.7087,1.7085,1.7083,1.7077,1.7073,1.7072,1.7071,1.7055,1.7055,1.7055,0,0,0,0,0,0,1.7162,1.716,1.7138,1.7146,1.7143,1.7128,1.7124,1.7121,1.7117,1.7102,1.7099,1.7109,1.7087,1.7084,1.7076,1.7076,1.7072,1.7071,1.7055,1.7055,1.7055,1.7069,0,0,0,0,0,0,1.7163,1.7161,1.7161,1.7146,1.7143,1.7133,1.7124,1.7121,1.7116,1.7114,1.7099,1.7097,1.7086,1.7078,1.7075,1.7075,1.707,1.7055,1.7055,1.7055,1.7068,1.7069,1.707,0,0,0,0,0,1.7164,1.7166,1.7161,1.7159,1.7143,1.7134,1.7131,1.712,1.7116,1.7115,1.7105,1.7097,1.7077,1.7077,1.7074,1.7074,1.7055,1.7055,1.7055,1.7068,1.7069,1.707,0,0,0,0,0,0,1.7182,1.7164,1.7158,1.7156,1.7146,1.7131,1.713,1.7122,1.7113,1.7112,1.7098,1.7095,1.7088,1.708,1.7081,1.7069,1.7065,1.7064,1.7075,1.7076,1.7077,1.7079,1.7069,0,0,0,0,0,1.7185,1.718,1.7165,1.7164,1.7159,1.7145,1.7141,1.7133,1.7122,1.7118,1.7107,1.7096,1.7086,1.7081,1.7072,1.7067,1.7062,1.7065,1.7066,1.7067,1.7066,1.706,1.706,1.7056,1.7056,1.7056,0,0,1.7192,1.7182,1.718,1.7167,1.7158,1.7152,1.7142,1.7136,1.713,1.7117,1.7108,1.71,1.7086,1.7079,1.7075,1.7072,1.7066,1.7067,1.7068,1.7067,1.706,1.706,1.7061,1.7056,1.7056,1.7056,0,0,1.7202,1.7194,1.7191,1.7183,1.717,1.716,1.7159,1.7144,1.7138,1.713,1.7118,1.711,1.7096,1.7086,1.7079,1.7081,1.7072,1.7078,1.7083,1.7077,1.7077,1.7078,1.7076,1.7076,1.7078,1.7078,1.7078,0,1.7212,1.7203,1.7191,1.7185,1.7178,1.7165,1.716,1.7152,1.7137,1.7132,1.7129,1.7108,1.7098,1.7087,1.7087,1.7083,1.708,1.708,1.7079,1.7079,1.7079,1.7077,1.7077,1.7079,1.7079,1.7078,1.7078,0,1.7215,1.7208,1.7207,1.7192,1.7185,1.718,1.7166,1.716,1.7152,1.7142,1.7131,1.7119,1.7105,1.7102,1.7095,1.7089,1.7087,1.7082,1.7076,1.708,1.7078,1.7078,1.708,1.7079,1.7079,1.7079,0,0,1.7236,1.7213,1.7212,1.7204,1.7188,1.7181,1.7174,1.7161,1.7156,1.7145,1.7137,1.7123,1.7117,1.7109,1.71,1.7094,1.7094,1.7089,1.7088,1.7089,1.7084,1.7087,1.7087,1.7088,1.7088,1.7088,1.7084,0,1.7241,1.7229,1.7217,1.7208,1.72,1.7186,1.7179,1.7167,1.7157,1.7147,1.7136,1.7125,1.7119,1.7114,1.7108,1.7095,1.7092,1.7095,1.7079,1.7078,1.7082,1.7086,1.7091,1.7088,1.7084,1.7084,1.7084,0,1.7247,1.7236,1.7226,1.7208,1.7204,1.7199,1.7184,1.7176,1.7161,1.7154,1.7143,1.7133,1.7122,1.7118,1.7102,1.7104,1.7096,1.7088,1.7088,1.7085,1.7081,1.7083,1.7088,1.7087,1.7083,1.7083,1.7083,0,1.726,1.7243,1.7235,1.7228,1.7208,1.7203,1.7194,1.7179,1.7171,1.7158,1.7152,1.7138,1.713,1.7118,1.7103,1.7102,1.7088,1.7083,1.708,1.708,1.7077,1.7077,1.708,1.7074,1.7074,1.7074,1.7074,0,1.7267,1.7262,1.724,1.7235,1.7227,1.7212,1.7204,1.7193,1.7179,1.717,1.7157,1.7148,1.713,1.7118,1.7106,1.7093,1.709,1.7082,1.7079,1.7083,1.7083,1.7077,1.7076,1.7074,1.7074,1.7074,1.7074,0,1.7282,1.7267,1.7257,1.7237,1.7232,1.7226,1.7209,1.7202,1.719,1.7178,1.7174,1.7156,1.7141,1.7125,1.7105,1.7096,1.7084,1.708,1.7089,1.7087,1.7084,1.7084,1.7081,1.7079,1.7076,1.7076,1.7076,0,1.7287,1.7282,1.7261,1.7254,1.7245,1.7234,1.7226,1.7209,1.7201,1.7182,1.7176,1.7161,1.7147,1.7124,1.7108,1.7091,1.7086,1.7086,1.7084,1.7087,1.7084,1.7084,1.7082,1.7087,1.7087,1.7087,1.7087,0,1.7296,1.7289,1.7277,1.7263,1.7253,1.724,1.7227,1.7222,1.7203,1.7193,1.7178,1.7168,1.7146,1.713,1.7111,1.71,1.7089,1.7088,1.7086,1.709,1.7095,1.709,1.709,1.7088,1.7088,1.7088,1.7088,1.7088,1.7304,1.7298,1.7282,1.7269,1.7257,1.7245,1.7237,1.7223,1.7211,1.7192,1.7183,1.7167,1.7149,1.7123,1.7112,1.7098,1.7095,1.7093,1.7092,1.7091,1.7092,1.7097,1.7095,1.7095,1.7095,1.7095,1.7095,0,1.7312,1.73,1.7288,1.727,1.7259,1.7251,1.7235,1.7226,1.7212,1.7197,1.7184,1.7165,1.7148,1.7129,1.7111,1.7103,1.7098,1.7099,1.7099,1.7096,1.7096,1.7099,1.7104,1.7104,1.7104,1.7104,1.7104,1.7104,1.7314,1.7303,1.7293,1.7274,1.7262,1.7247,1.7239,1.7226,1.7213,1.7193,1.7179,1.7167,1.715,1.713,1.7113,1.7108,1.7101,1.7103,1.7096,1.7097,1.7096,1.7096,1.7098,1.7102,1.7102,1.7097,1.7097,1.7097]}]]